Jackson, WY

10:19 PM MDT on June 28, 2017 (GMT -0600)
Jackson Hole

Weather History for KJAC - October, 2012

Change the Weather History Date:

Monday, October 22, 2012

  Actual Average Record
Temperature  
Mean Temperature 36 °F -  
Max Temperature 39 °F 54 °F 71 °F (2003)
Min Temperature 33 °F 22 °F 10 °F (1984)
Degree Days  
Heating Degree Days 29    
Moisture  
Dew Point 33 °F    
Average Humidity 89    
Maximum Humidity 100    
Minimum Humidity 70    
Precipitation  
Precipitation 0.05 in - - ()
Sea Level Pressure  
Sea Level Pressure 29.78 in    
Wind  
Wind Speed 4 mph (SSW)    
Max Wind Speed 13 mph    
Max Gust Speed 17 mph    
Visibility 8 miles    
Events Rain , Snow    
Averages and records for this station are not official NWS values.
T = Trace of Precipitation, MM = Missing Value Source: NWS Daily Summary

Daily Weather History Graph

Daily Weather History Graph

Search for Another Location

Airport or City:

Trip Planner

Search our weather history database for the weather conditions in past years. The results will help you decide how hot, cold, wet, or windy it might be!

Date:

Astronomy

Oct. 22, 2012 Rise Set
Actual Time 7:46 AM MDT 6:27 PM MDT
Civil Twilight 7:17 AM MDT 6:56 PM MDT
Nautical Twilight 6:43 AM MDT 7:30 PM MDT
Astronomical Twilight 6:10 AM MDT 8:03 PM MDT
Moon 2:49 PM MDT (10/22) 12:24 AM MDT (10/22)
Length of Visible Light 11h 39m
Length of Day
10h 40m
First Quarter, 57% of the Moon is Illuminated
Oct 22
First Quarter
Oct 29
Full
Nov 6
Last Quarter
Nov 13
New
Nov 20
First Quarter

Hourly Weather History & Observations

Time (MDT) Temp. Windchill Dew Point Humidity Pressure Visibility Wind Dir Wind Speed Gust Speed Precip Events Conditions
12:15 AM 33.8 °F 27.7 °F 30.2 °F 87% 29.85 in 10.0 mi North 6.9 mph - N/A   Overcast
12:35 AM 33.8 °F 30.8 °F 30.2 °F 87% 29.85 in 10.0 mi NE 3.5 mph - N/A   Overcast
12:55 AM 33.8 °F 28.6 °F 30.2 °F 87% 29.84 in 10.0 mi North 5.8 mph - N/A   Overcast
12:56 AM 33.8 °F 28.6 °F 30.2 °F 87% 29.84 in 10.0 mi North 5.8 mph - N/A   Overcast
1:15 AM 35.6 °F - 32.0 °F 87% 29.85 in 10.0 mi Calm Calm - N/A   Overcast
1:35 AM 37.4 °F 32.8 °F 32.0 °F 81% 29.85 in 10.0 mi North 5.8 mph - N/A   Overcast
1:55 AM 37.4 °F 32.8 °F 30.2 °F 75% 29.85 in 10.0 mi NNE 5.8 mph - N/A   Overcast
2:15 AM 37.4 °F 33.8 °F 30.2 °F 75% 29.84 in 10.0 mi ENE 4.6 mph - N/A   Overcast
2:35 AM 39.2 °F 35.0 °F 30.2 °F 70% 29.85 in 10.0 mi NNE 5.8 mph - N/A   Overcast
2:55 AM 37.4 °F - 30.2 °F 75% 29.85 in 10.0 mi Calm Calm - N/A   Overcast
3:15 AM 37.4 °F - 30.2 °F 75% 29.85 in 10.0 mi Calm Calm - N/A   Overcast
3:35 AM 37.4 °F 34.9 °F 30.2 °F 75% 29.84 in 10.0 mi WSW 3.5 mph - N/A   Overcast
3:55 AM 35.6 °F 30.7 °F 30.2 °F 81% 29.84 in 10.0 mi SW 5.8 mph - N/A   Overcast
4:15 AM 35.6 °F 31.7 °F 30.2 °F 81% 29.85 in 10.0 mi SSW 4.6 mph - N/A   Overcast
4:35 AM 37.4 °F 33.8 °F 30.2 °F 75% 29.85 in 10.0 mi West 4.6 mph - N/A   Overcast
4:55 AM 37.4 °F 31.4 °F 30.2 °F 75% 29.84 in 10.0 mi North 8.1 mph - N/A   Overcast
5:15 AM 37.4 °F 32.8 °F 32.0 °F 81% 29.84 in 10.0 mi North 5.8 mph - N/A   Overcast
5:35 AM 37.4 °F 32.8 °F 32.0 °F 81% 29.83 in 10.0 mi North 5.8 mph - N/A   Overcast
5:56 AM 37.4 °F 32.8 °F 33.8 °F 87% 29.83 in 10.0 mi NNE 5.8 mph - N/A   Overcast
6:15 AM 37.4 °F - 32.0 °F 81% 29.85 in 10.0 mi Calm Calm - N/A   Overcast
6:35 AM 37.4 °F 32.8 °F 32.0 °F 81% 29.85 in 10.0 mi South 5.8 mph - N/A   Overcast
6:53 AM 37.4 °F - 32.0 °F 81% 29.84 in 10.0 mi Calm Calm - N/A   Overcast
6:55 AM 37.4 °F - 32.0 °F 81% 29.85 in 10.0 mi Calm Calm - N/A   Overcast
7:53 AM 37.4 °F 34.9 °F 33.8 °F 87% 29.84 in 8.0 mi South 3.5 mph - N/A   Overcast
8:23 AM 35.6 °F - 33.8 °F 93% 29.85 in 4.0 mi Calm Calm - N/A Rain Light Rain
8:52 AM 35.6 °F - 33.8 °F 93% 29.83 in 4.0 mi Calm Calm - N/A Snow Light Snow
9:17 AM 35.6 °F - 33.8 °F 93% 29.82 in 6.0 mi Calm Calm - N/A   Overcast
9:55 AM 35.6 °F - 35.6 °F 100% 29.81 in 7.0 mi Calm Calm - N/A   Overcast
10:18 AM 35.6 °F - 35.6 °F 100% 29.81 in 4.0 mi Calm Calm - N/A Snow Light Snow
10:51 AM 35.6 °F - 33.8 °F 93% 29.78 in 2.0 mi Calm Calm - N/A Snow Light Snow
11:35 AM 33.8 °F 30.8 °F 32.0 °F 93% 29.77 in 1.0 mi SSE 3.5 mph - N/A Snow Light Snow
11:51 AM 33.8 °F - 33.8 °F 100% 29.75 in 0.5 mi Calm Calm - N/A Snow Snow
12:14 PM 33.8 °F - 33.8 °F 100% 29.72 in 0.8 mi Calm Calm - N/A Snow Light Snow
12:51 PM 33.8 °F - 33.8 °F 100% 29.70 in 0.8 mi Calm Calm - N/A Snow Light Snow
1:52 PM 33.8 °F 28.6 °F 33.8 °F 100% 29.69 in 0.8 mi ESE 5.8 mph - N/A Snow Light Snow
2:13 PM 33.8 °F 30.8 °F 32.0 °F 93% 29.68 in 8.0 mi East 3.5 mph - N/A   Overcast
2:56 PM 33.8 °F - 33.8 °F 100% 29.65 in 7.0 mi Calm Calm - N/A   Overcast
3:51 PM 33.8 °F 28.6 °F 33.8 °F 100% 29.64 in 2.5 mi WNW 5.8 mph - N/A Snow Light Snow
4:02 PM 37.4 °F 30.3 °F 37.4 °F 100% 29.65 in 5.0 mi SW 10.4 mph - N/A   Overcast
4:59 PM 37.4 °F 29.3 °F 37.4 °F 100% 29.69 in 9.0 mi SSE 12.7 mph - N/A   Overcast
5:52 PM 37.4 °F 30.8 °F 35.6 °F 93% 29.69 in 10.0 mi SE 9.2 mph - N/A   Mostly Cloudy
6:55 PM 37.4 °F - 37.4 °F 100% 29.69 in 10.0 mi Calm Calm - N/A   Overcast
7:57 PM 37.4 °F 31.4 °F 37.4 °F 100% 29.69 in 10.0 mi SW 8.1 mph - N/A   Overcast
8:51 PM 37.4 °F 34.9 °F 37.4 °F 100% 29.70 in 10.0 mi South 3.5 mph - N/A   Overcast
8:55 PM 37.4 °F 33.8 °F 35.6 °F 93% 29.70 in 10.0 mi South 4.6 mph - 0.04 in   Overcast
9:55 PM 37.4 °F - 37.4 °F 100% 29.69 in 10.0 mi Calm Calm - 0.01 in   Overcast
10:15 PM 37.4 °F 34.9 °F 35.6 °F 93% 29.69 in 10.0 mi West 3.5 mph - N/A   Overcast
10:35 PM 37.4 °F 32.1 °F 37.4 °F 100% 29.69 in 10.0 mi SSW 6.9 mph - N/A   Mostly Cloudy
11:15 PM 37.4 °F 30.3 °F 35.6 °F 93% 29.69 in 10.0 mi South 10.4 mph - N/A   Overcast
11:35 PM 37.4 °F 29.8 °F 35.6 °F 93% 29.72 in 10.0 mi SW 11.5 mph 17.3 mph N/A   Overcast
11:55 PM 35.6 °F 29.9 °F 33.8 °F 93% 29.73 in 10.0 mi South 6.9 mph - N/A   Mostly Cloudy